FW2439 Weather Reports


Display with metric or nautical units.
time (UTC)temp
F
wind
direction
speed
MPH
gust
MPH
rain 1hr
in
rain 24hr
in
rain mn
in
humidity
%
barometer
mb
20260502224535 67 331 2.0 6.0 0.00 0.00 0.00 40 1017.3
20260502223034 67 316 1.0 8.0 0.00 0.00 0.00 42 1017.2
20260502221531 68 281 1.0 9.0 0.00 0.00 0.00 42 1017.1
20260502220032 69 323 3.0 8.0 0.00 0.00 0.00 43 1017.1
20260502214530 67 286 3.0 14.0 0.00 0.00 0.00 42 1016.8
20260502213037 69 257 3.0 10.0 0.00 0.00 0.00 40 1016.6
20260502211528 68 253 3.0 11.0 0.00 0.00 0.00 43 1016.8
20260502210025 69 207 2.0 8.0 0.00 0.00 0.00 41 1016.8
20260502204524 68 248 3.0 14.0 0.00 0.00 0.00 43 1016.7
20260502203021 68 260 3.0 10.0 0.00 0.00 0.00 41 1016.9
20260502201532 66 259 0.0 7.0 0.00 0.00 0.00 48 1017.0
20260502200021 67 254 1.0 8.0 0.00 0.00 0.00 45 1017.1
20260502194519 68 235 3.0 9.0 0.00 0.00 0.00 41 1017.1
20260502193018 68 257 1.0 9.0 0.00 0.00 0.00 45 1017.1
20260502191517 70 274 1.0 10.0 0.00 0.00 0.00 43 1017.0
20260502190014 68 248 1.0 5.0 0.00 0.00 0.00 44 1017.4
20260502184513 68 223 2.0 8.0 0.00 0.00 0.00 47 1017.6
20260502183012 67 331 1.0 5.0 0.00 0.00 0.00 46 1017.7
20260502181512 66 284 1.0 6.0 0.00 0.00 0.00 48 1017.9
20260502163004 66 344 2.0 5.0 0.00 0.00 0.00 44 1018.9
20260502161504 65 210 2.0 8.0 0.00 0.00 0.00 43 1019.0
20260502151614 65 229 0.0 1.0 0.00 0.00 0.00 51 1019.0
20260502123029 44 261 0.0 0.0 0.00 0.00 0.00 96 1018.3
20260502121531 43 261 0.0 0.0 0.00 0.00 0.00 96 1018.2
20260502114528 41 261 0.0 0.0 0.00 0.00 0.00 95 1018.0
20260502113027 41 261 0.0 0.0 0.00 0.00 0.00 95 1017.7
20260502111524 40 261 0.0 2.0 0.00 0.00 0.00 95 1017.5
20260502110023 40 271 0.0 0.0 0.00 0.00 0.00 94 1017.5
20260502104526 41 271 0.0 0.0 0.00 0.00 0.00 94 1017.5
20260502103019 41 271 0.0 0.0 0.00 0.00 0.00 93 1017.4
20260502101516 41 271 0.0 0.0 0.00 0.00 0.00 93 1017.3
20260502091516 43 271 0.0 0.0 0.00 0.00 0.00 91 1017.0
20260502070106 48 271 0.0 0.0 0.00 0.00 0.00 86 1017.4
20260502064549 48 271 0.0 0.0 0.00 0.00 0.00 83 1017.6
20260502063044 48 271 0.0 0.0 0.00 0.00 0.00 83 1017.8
20260502061543 49 271 0.0 0.0 0.00 0.00 0.00 82 1017.8
20260502060044 49 271 0.0 0.0 0.00 0.00 0.00 82 1017.8
20260502054554 50 271 0.0 0.0 0.00 0.00 0.00 80 1017.7
20260502053036 50 271 0.0 0.0 0.00 0.00 0.00 80 1017.9
20260502051536 51 271 0.0 0.0 0.00 0.00 0.00 78 1018.0
20260502050030 51 271 0.0 0.0 0.00 0.00 0.00 75 1017.9
20260502044530 51 271 0.0 0.0 0.00 0.00 0.00 75 1017.7
20260502043028 52 271 0.0 0.0 0.00 0.00 0.00 73 1017.4
20260502041551 52 271 0.0 1.0 0.00 0.00 0.00 73 1017.4
20260502040045 51 271 0.0 1.0 0.00 0.00 0.00 75 1017.2
20260502034527 50 302 0.0 2.0 0.00 0.00 0.00 79 1017.2
20260502033031 50 302 0.0 1.0 0.00 0.00 0.00 82 1017.4
20260502031526 51 302 0.0 0.0 0.00 0.00 0.00 84 1018.0
20260502030030 51 302 0.0 0.0 0.00 0.00 0.00 83 1018.2
20260502024525 51 302 0.0 0.0 0.00 0.00 0.00 80 1018.3
20260502023031 52 302 0.0 0.0 0.00 0.00 0.00 78 1018.3
20260502021523 52 302 0.0 0.0 0.00 0.00 0.00 79 1018.0
20260502020022 53 302 0.0 0.0 0.00 0.00 0.00 76 1018.1
20260502014529 53 302 0.0 0.0 0.00 0.00 0.00 76 1017.5
20260502013021 54 302 0.0 0.0 0.00 0.00 0.00 73 1017.4
20260502011521 55 302 0.0 0.0 0.00 0.00 0.00 70 1017.1
20260502010023 56 302 0.0 0.0 0.00 0.00 0.00 66 1016.9
20260502004520 57 302 0.0 0.0 0.00 0.00 0.00 60 1016.6
20260502003019 58 302 0.0 0.0 0.00 0.00 0.00 62 1016.5
20260502001519 60 302 0.0 1.0 0.00 0.00 0.00 54 1016.4
20260502000018 61 308 0.0 1.0 0.00 0.00 0.00 54 1016.0
20260501234518 61 312 0.0 1.0 0.00 0.00 0.00 52 1015.9
20260501233018 62 312 0.0 4.0 0.00 0.00 0.00 48 1015.5
20260501231518 63 309 0.0 4.0 0.00 0.00 0.00 45 1015.4
20260501230032 64 307 1.0 4.0 0.00 0.00 0.00 45 1015.1